• In Austria
  • List of Countries
  • For 7 days
  • Water Temperature
  • Satellite Maps
  • Weather Map
  • News
  • Weather Widgets
  • user-avatar
    Login

    Hourly Weather Kitzbuhel

    Today, 16 August, Thursday

    Time Temperature Precipitation Wind Pressure Humidity
    00:00 +13°C° 0 mm 1 mps 680 mmHg 95%
    01:00 +12°C° 0 mm 1 mps 680 mmHg 95%
    02:00 +12°C° 0 mm 1 mps 680 mmHg 94%
    03:00 +12°C° 0 mm 1 mps 680 mmHg 92%
    04:00 +11°C° 0 mm 1 mps 679 mmHg 91%
    05:00 +13°C° 0 mm 1 mps 680 mmHg 87%
    06:00 +14°C° 0 mm 1 mps 680 mmHg 83%
    07:00 +15°C° 0 mm 1 mps 680 mmHg 79%
    08:00 +19°C° 0 mm 1 mps 680 mmHg 69%
    09:00 +21°C° 0 mm 1 mps 680 mmHg 60%
    10:00 +24°C° 0 mm 1 mps 681 mmHg 51%
    11:00 +24°C° 0 mm 1 mps 681 mmHg 49%
    12:00 +25°C° 0 mm 1 mps 680 mmHg 47%
    13:00 +26°C° 0 mm 2 mps 680 mmHg 45%
    14:00 +25°C° 0 mm 2 mps 680 mmHg 48%
    15:00 +25°C° 0 mm 2 mps 679 mmHg 51%
    16:00 +25°C° 0 mm 2 mps 679 mmHg 54%
    17:00 +23°C° 0.2 mm 1 mps 679 mmHg 65%
    18:00 +21°C° 0.2 mm 1 mps 678 mmHg 76%
    19:00 +19°C° 0.2 mm 1 mps 678 mmHg 86%
    20:00 +18°C° 0 mm 1 mps 678 mmHg 88%
    21:00 +16°C° 0 mm 1 mps 678 mmHg 90%
    22:00 +15°C° 0 mm 1 mps 678 mmHg 91%
    23:00 +15°C° 0 mm 1 mps 678 mmHg 91%

    Tomorrow, 17 August, Friday

    Time Temperature Precipitation Wind Pressure Humidity
    00:00 +14°C° 0 mm 1 mps 678 mmHg 91%
    01:00 +14°C° 0 mm 1 mps 678 mmHg 90%
    02:00 +14°C° 0 mm 1 mps 677 mmHg 90%
    03:00 +14°C° 0 mm 1 mps 677 mmHg 90%
    04:00 +13°C° 0 mm 1 mps 677 mmHg 90%
    05:00 +15°C° 0 mm 1 mps 677 mmHg 87%
    06:00 +16°C° 0 mm 1 mps 678 mmHg 85%
    07:00 +18°C° 0 mm 1 mps 678 mmHg 82%
    08:00 +20°C° 0 mm 1 mps 678 mmHg 73%
    09:00 +22°C° 0 mm 1 mps 679 mmHg 64%
    10:00 +25°C° 0 mm 1 mps 679 mmHg 55%
    11:00 +25°C° 0.2 mm 1 mps 679 mmHg 56%
    12:00 +25°C° 0.2 mm 1 mps 679 mmHg 56%
    13:00 +26°C° 0.2 mm 1 mps 679 mmHg 57%
    14:00 +25°C° 1.4 mm 1 mps 678 mmHg 64%
    15:00 +24°C° 1.4 mm 1 mps 678 mmHg 70%
    16:00 +23°C° 1.4 mm 1 mps 678 mmHg 76%
    17:00 +22°C° 1.1 mm 1 mps 678 mmHg 80%
    18:00 +21°C° 1.1 mm 1 mps 678 mmHg 85%
    19:00 +17°C° 1.1 mm 0 mps 678 mmHg 89%
    20:00 +19°C° 0.5 mm 1 mps 678 mmHg 90%
    21:00 +18°C° 0.5 mm 1 mps 678 mmHg 91%
    22:00 +16°C° 0.5 mm 1 mps 678 mmHg 93%
    23:00 +16°C° 0.1 mm 1 mps 678 mmHg 93%

    Day after tomorrow, 18 August, Saturday

    Time Temperature Precipitation Wind Pressure Humidity
    00:00 +16°C° 0.1 mm 1 mps 678 mmHg 94%
    01:00 +15°C° 0.1 mm 1 mps 678 mmHg 94%
    02:00 +15°C° 0.1 mm 1 mps 678 mmHg 95%
    03:00 +15°C° 0.1 mm 1 mps 678 mmHg 95%
    04:00 +15°C° 0.1 mm 1 mps 679 mmHg 95%
    05:00 +15°C° 0.1 mm 1 mps 679 mmHg 94%
    06:00 +16°C° 0.1 mm 1 mps 679 mmHg 93%
    07:00 +18°C° 0.1 mm 1 mps 680 mmHg 92%
    08:00 +19°C° 0.1 mm 1 mps 680 mmHg 89%
    09:00 +19°C° 0.1 mm 1 mps 680 mmHg 86%
    10:00 +20°C° 0.1 mm 1 mps 681 mmHg 83%
    11:00 +21°C° 0.4 mm 1 mps 681 mmHg 80%
    12:00 +22°C° 0.4 mm 1 mps 681 mmHg 77%
    13:00 +23°C° 0.4 mm 2 mps 681 mmHg 74%
    14:00 +22°C° 0.9 mm 1 mps 680 mmHg 77%
    15:00 +22°C° 0.9 mm 1 mps 680 mmHg 81%
    16:00 +22°C° 0.9 mm 1 mps 680 mmHg 84%
    17:00 +21°C° 0.7 mm 1 mps 680 mmHg 88%
    18:00 +20°C° 0.7 mm 1 mps 680 mmHg 91%
    19:00 +19°C° 0.7 mm 1 mps 681 mmHg 95%
    20:00 +18°C° 0.4 mm 1 mps 681 mmHg 96%
    21:00 +18°C° 0.4 mm 1 mps 681 mmHg 97%
    22:00 +16°C° 0.4 mm 1 mps 681 mmHg 97%
    23:00 +16°C° 0 mm 1 mps 681 mmHg 97%

    19 August, Sunday

    Time Temperature Precipitation Wind Pressure Humidity
    00:00 +15°C° 0 mm 1 mps 681 mmHg 97%
    01:00 +15°C° 0 mm 1 mps 681 mmHg 97%
    02:00 +15°C° 0 mm 1 mps 681 mmHg 97%
    03:00 +15°C° 0 mm 1 mps 681 mmHg 97%
    04:00 +14°C° 0 mm 1 mps 681 mmHg 97%
    05:00 +14°C° 0 mm 0 mps 681 mmHg 96%
    06:00 +15°C° 0 mm 0 mps 681 mmHg 95%
    07:00 +16°C° 0 mm 0 mps 682 mmHg 94%
    08:00 +18°C° 0 mm 0 mps 682 mmHg 85%
    09:00 +21°C° 0 mm 1 mps 682 mmHg 77%
    10:00 +23°C° 0 mm 1 mps 683 mmHg 69%
    11:00 +24°C° 0.4 mm 1 mps 683 mmHg 68%
    12:00 +24°C° 0.4 mm 1 mps 682 mmHg 67%
    13:00 +25°C° 0.4 mm 2 mps 682 mmHg 65%
    14:00 +24°C° 1.1 mm 1 mps 682 mmHg 69%
    15:00 +24°C° 1.1 mm 1 mps 682 mmHg 72%
    16:00 +24°C° 1.1 mm 1 mps 682 mmHg 76%
    17:00 +22°C° 1.3 mm 1 mps 681 mmHg 81%
    18:00 +21°C° 1.3 mm 1 mps 681 mmHg 86%
    19:00 +18°C° 1.3 mm 0 mps 681 mmHg 92%
    20:00 +17°C° 0.8 mm 0 mps 681 mmHg 93%
    21:00 +18°C° 0.8 mm 1 mps 681 mmHg 94%
    22:00 +18°C° 0.8 mm 1 mps 682 mmHg 94%
    23:00 +16°C° 0.3 mm 1 mps 681 mmHg 95%

    20 August, Monday

    Time Temperature Precipitation Wind Pressure Humidity
    00:00 +16°C° 0.3 mm 1 mps 681 mmHg 95%
    01:00 +16°C° 0.3 mm 1 mps 681 mmHg 95%
    02:00 +15°C° 0.1 mm 1 mps 681 mmHg 95%
    03:00 +15°C° 0.1 mm 1 mps 681 mmHg 96%
    04:00 +15°C° 0.1 mm 1 mps 681 mmHg 96%
    05:00 +16°C° 0 mm 1 mps 681 mmHg 94%
    06:00 +18°C° 0 mm 1 mps 681 mmHg 93%
    07:00 +19°C° 0 mm 1 mps 682 mmHg 92%
    08:00 +20°C° 0.1 mm 1 mps 682 mmHg 85%
    09:00 +22°C° 0.1 mm 1 mps 682 mmHg 79%
    10:00 +24°C° 0.1 mm 1 mps 683 mmHg 73%
    11:00 +24°C° 0.8 mm 1 mps 682 mmHg 72%
    12:00 +25°C° 0.8 mm 1 mps 682 mmHg 71%
    13:00 +25°C° 0.8 mm 1 mps 682 mmHg 70%
    14:00 +25°C° 1.2 mm 1 mps 682 mmHg 72%
    15:00 +25°C° 1.2 mm 1 mps 682 mmHg 73%
    16:00 +24°C° 1.2 mm 1 mps 682 mmHg 74%
    17:00 +23°C° 0.9 mm 1 mps 681 mmHg 80%
    18:00 +22°C° 0.9 mm 1 mps 681 mmHg 86%
    19:00 +18°C° 0.9 mm 0 mps 681 mmHg 92%
    20:00 +17°C° 0.9 mm 0 mps 681 mmHg 93%
    21:00 +19°C° 0.9 mm 1 mps 682 mmHg 94%
    22:00 +18°C° 0.9 mm 1 mps 682 mmHg 95%
    23:00 +18°C° 0.1 mm 1 mps 682 mmHg 96%

    21 August, Tuesday

    Time Temperature Precipitation Wind Pressure Humidity
    00:00 +18°C° 0.1 mm 1 mps 682 mmHg 96%
    01:00 +16°C° 0.1 mm 1 mps 682 mmHg 96%
    02:00 +16°C° 0 mm 1 mps 682 mmHg 96%
    03:00 +16°C° 0 mm 1 mps 681 mmHg 96%
    04:00 +16°C° 0 mm 1 mps 681 mmHg 96%
    05:00 +18°C° 0 mm 1 mps 682 mmHg 95%
    06:00 +18°C° 0 mm 1 mps 682 mmHg 93%
    07:00 +19°C° 0 mm 1 mps 682 mmHg 91%
    08:00 +21°C° 0 mm 1 mps 682 mmHg 84%
    09:00 +23°C° 0 mm 1 mps 683 mmHg 76%
    10:00 +25°C° 0 mm 1 mps 683 mmHg 68%
    11:00 +25°C° 0.5 mm 1 mps 683 mmHg 67%
    12:00 +25°C° 0.5 mm 1 mps 682 mmHg 65%
    13:00 +26°C° 0.5 mm 2 mps 682 mmHg 64%
    14:00 +26°C° 1.4 mm 2 mps 682 mmHg 66%
    15:00 +25°C° 1.4 mm 2 mps 681 mmHg 68%
    16:00 +25°C° 1.4 mm 1 mps 681 mmHg 71%
    17:00 +24°C° 2.2 mm 1 mps 681 mmHg 77%
    18:00 +22°C° 2.2 mm 1 mps 680 mmHg 83%
    19:00 +20°C° 2.2 mm 1 mps 680 mmHg 89%
    20:00 +20°C° 0.8 mm 1 mps 680 mmHg 90%
    21:00 +19°C° 0.8 mm 1 mps 680 mmHg 91%
    22:00 +19°C° 0.8 mm 1 mps 680 mmHg 91%
    23:00 +18°C° 0.2 mm 1 mps 680 mmHg 92%
    Show more